Weather History for Miles City, MT

Change the Weather History Date:

Friday, July 19, 2013

  Actual Average Record
Temperature  
Mean Temperature 74 °F 75 °F  
Max Temperature 92 °F 89 °F 108 °F (1960)
Min Temperature 56 °F 60 °F 44 °F (1948)
Degree Days  
Heating Degree Days 0 0  
Month to date heating degree days 0 10  
Since 1 June heating degree days 59 99  
Since 1 July heating degree days 0 10  
Cooling Degree Days 9 10  
Month to date cooling degree days 225 163  
Year to date cooling degree days 331 290  
Since 1 June cooling degree days 318 270  
Growing Degree Days 23 (Base 50)    
Moisture  
Dew Point 48 °F    
Average Humidity 46    
Maximum Humidity 72    
Minimum Humidity 20    
Precipitation  
Precipitation 0.00 in 0.05 in 1.64 in (1948)
Month to date precipitation 0.51 1.05  
Year to date precipitation 11.54 8.26  
Sea Level Pressure  
Sea Level Pressure 29.95 in    
Wind  
Wind Speed 5 mph (WNW)    
Max Wind Speed 15 mph    
Max Gust Speed 17 mph    
Visibility 10 miles    
Events      
T = Trace of Precipitation, MM = Missing Value Source: NWS Daily Summary

Daily Weather History Graph

Daily Weather History Graph

Search for Another Location

Airport:

Trip Planner

Search our weather history database for the weather conditions in past years. The results will help you decide how hot, cold, wet, or windy it might be!

Date:

Astronomy

Jul. 19, 2013 Rise Set
Actual Time 5:30 AM MDT 8:48 PM MDT
Civil Twilight 4:53 AM MDT 9:25 PM MDT
Nautical Twilight 4:05 AM MDT 10:13 PM MDT
Astronomical Twilight 3:04 AM MDT 11:13 PM MDT
Moon 5:53 PM MDT (7/19) 2:15 AM MDT (7/19)
Length of Visible Light 16h 32m
Length of Day
15h 18m
Waxing Gibbous, 87% of the Moon is Illuminated
Jul 19
Waxing Gibbous
Jul 22
Full
Jul 29
Last Quarter
Aug 6
New
Aug 14
First Quarter

Hourly Weather History & Observations

Time (MDT) Temp. Dew Point Humidity Pressure Visibility Wind Dir Wind Speed Gust Speed Precip Events Conditions
12:53 AM 64.0 °F 45.0 °F 50% 30.01 in 10.0 mi NW 5.8 mph - N/A   Clear
1:53 AM 64.9 °F 46.0 °F 50% 30.01 in 10.0 mi NNW 4.6 mph - N/A   Clear
2:53 AM 64.0 °F 46.0 °F 52% 30.01 in 10.0 mi Calm Calm - N/A   Clear
3:53 AM 57.0 °F 46.0 °F 67% 30.01 in 10.0 mi NW 5.8 mph - N/A   Clear
4:53 AM 55.9 °F 46.0 °F 69% 30.02 in 10.0 mi WNW 4.6 mph - N/A   Clear
5:53 AM 55.9 °F 46.9 °F 72% 30.02 in 10.0 mi WNW 5.8 mph - N/A   Clear
6:53 AM 60.1 °F 48.0 °F 64% 30.02 in 10.0 mi WNW 4.6 mph - N/A   Clear
7:53 AM 66.0 °F 52.0 °F 60% 30.02 in 10.0 mi South 4.6 mph - N/A   Clear
8:53 AM 71.1 °F 51.1 °F 49% 30.03 in 10.0 mi SSW 6.9 mph - N/A   Clear
9:53 AM 78.1 °F 51.1 °F 39% 30.01 in 10.0 mi WSW 4.6 mph - N/A   Clear
10:53 AM 82.0 °F 48.9 °F 31% 29.99 in 10.0 mi Calm Calm - N/A   Clear
11:53 AM 84.0 °F 48.9 °F 29% 29.97 in 10.0 mi Calm Calm - N/A   Clear
12:53 PM 88.0 °F 48.9 °F 26% 29.96 in 10.0 mi Variable 5.8 mph - N/A   Clear
1:53 PM 89.1 °F 48.0 °F 24% 29.94 in 10.0 mi South 8.1 mph - N/A   Clear
2:53 PM 90.0 °F 46.9 °F 23% 29.91 in 10.0 mi Variable 5.8 mph - N/A   Clear
3:53 PM 90.0 °F 46.0 °F 22% 29.90 in 10.0 mi South 5.8 mph - N/A   Clear
4:53 PM 91.0 °F 45.0 °F 20% 29.88 in 10.0 mi South 9.2 mph - N/A   Clear
5:53 PM 90.0 °F 46.0 °F 22% 29.87 in 10.0 mi Calm Calm - N/A   Clear
6:53 PM 90.0 °F 46.0 °F 22% 29.85 in 10.0 mi ESE 4.6 mph - N/A   Clear
7:53 PM 87.1 °F 48.0 °F 26% 29.84 in 10.0 mi ENE 4.6 mph - N/A   Clear
8:53 PM 82.0 °F 48.9 °F 31% 29.84 in 10.0 mi NE 11.5 mph - N/A   Clear
9:53 PM 80.1 °F 50.0 °F 35% 29.86 in 10.0 mi ENE 8.1 mph - N/A   Clear
10:53 PM 75.9 °F 51.1 °F 42% 29.87 in 10.0 mi East 3.5 mph - N/A   Clear
11:53 PM 72.0 °F 50.0 °F 46% 29.88 in 10.0 mi North 8.1 mph - N/A   Clear